Hourly Data Report for October 05, 2013

All times are specified in Local Standard Time (LST). Add 1 hour to adjust for Daylight Saving Time where and when it is observed.

TORONTO INTL A
ONTARIO

43°40'36.000" N
79°37'50.000" W
173.40 m
6158731
71624
YYZ

Download Data

Hourly Data (October 2013)
Hourly Data Report for October 5, 2013
Temp Definition
°C
Dew Point Temp Definition
°C
Rel Hum Definition
%
Wind Dir Definition
10's deg

Wind Spd Definition
km/h
Visibility Definition
km
Stn Press Definition
kPa
Hmdx Definition


Wind Chill Definition


Weather Definition


TIME
00:00 Legend Double Dagger 15.2 12.7 85 10 10 16.1 99.78     LegendNANA
01:00 Legend Double Dagger 15.3 12.8 85 5 10 16.1 99.80     Cloudy
02:00 Legend Double Dagger 15.1 12.6 85 7 10 16.1 99.83     LegendNANA
03:00 Legend Double Dagger 15.0 12.4 84 6 12 16.1 99.80     LegendNANA
04:00 Legend Double Dagger 14.6 12.0 84 7 10 19.3 99.81     Cloudy
05:00 Legend Double Dagger 14.0 11.4 84 5 9 12.9 99.84     LegendNANA
06:00 Legend Double Dagger 13.8 11.0 83 3 9 12.9 99.91     LegendNANA
07:00 Legend Double Dagger 13.3 11.7 90 6 8 19.3 99.87     Cloudy
08:00 Legend Double Dagger 13.6 11.2 85 6 8 24.1 99.91     LegendNANA
09:00 Legend Double Dagger 14.2 10.8 80 5 10 24.1 99.91     LegendNANA
10:00 Legend Double Dagger 15.2 11.4 78 7 12 24.1 99.87     Cloudy
11:00 Legend Double Dagger 15.5 11.1 75 8 12 24.1 99.87     LegendNANA
12:00 Legend Double Dagger 16.1 10.5 69 10 13 24.1 99.84     LegendNANA
13:00 Legend Double Dagger 16.6 11.6 72 10 7 24.1 99.81     Cloudy
14:00 Legend Double Dagger 16.2 11.0 71 12 7 24.1 99.85     LegendNANA
15:00 Legend Double Dagger 16.7 11.1 69 9 11 24.1 99.77     LegendNANA
16:00 Legend Double Dagger 16.6 11.2 70 10 12 24.1 99.69     Cloudy
17:00 Legend Double Dagger 16.3 9.3 63 11 13 24.1 99.69     LegendNANA
18:00 Legend Double Dagger 16.0 10.2 68 12 11 24.1 99.68     LegendNANA
19:00 Legend Double Dagger 15.8 11.2 74 9 10 24.1 99.72     Cloudy
20:00 Legend Double Dagger 15.8 11.6 76 10 12 24.1 99.76     LegendNANA
21:00 Legend Double Dagger 16.0 11.2 73 11 9 24.1 99.73     LegendNANA
22:00 Legend Double Dagger 16.2 11.2 72 11 18 24.1 99.70     Cloudy
23:00 Legend Double Dagger 16.3 10.2 67 9 15 24.1 99.61     LegendNANA

Notes on Data Quality.

Legend

  • E = Estimated
  • M = Missing
  • NA = Not Available
  • ‡ = Partner data that is not subject to review by the National Climate Archives
Date modified: